Location: site
(53.0000°N, 23.0500°E)
Time: 17:10:08
(UTC+01:00)

SAOCOM 1-A - Pass Details

Date: 25 January 2020
Orbit: 621 x 623 km, 97.9° (Epoch: 25 February)

Event Time Altitude Azimuth Distance (km) Brightness Sun altitude
Rises 03:07:16 0° 116° (ESE) 2,901 ? -37.8°
Reaches altitude 10° 03:10:05 10° 96° (E) 1,999 ? -37.4°
Enters shadow 03:12:05 16° 69° (ENE) 1,630 ? -37.1°
